Location: Cabeza de los Veneras
(40.2000°N, 5.2000°W)
Time: 18:50:01
(UTC+00:00)

Cosmos 1536 Rocket - Visible Passes

Search period start: 12 July 2024 00:00
Search period end: 22 July 2024 00:00
Orbit: 601 x 630 km, 82.5° (Epoch: 12 July)

Date Brightness Start Highest point End Pass type
(mag) Time Alt. Az. Time Alt. Az. Time Alt. Az.
12 Jul 3.6 22:36:51 58° E 22:36:51 58° E 22:40:54 10° NNE visible
13 Jul 6.2 00:13:54 11° W 00:14:50 11° WNW 00:16:15 10° NW visible
13 Jul 3.5 22:52:40 72° W 22:52:45 73° W 22:57:05 10° N visible
14 Jul 5.3 21:31:24 16° E 21:31:31 16° E 21:34:13 10° NE visible
14 Jul 4.6 23:08:27 37° W 23:08:56 38° WNW 23:12:59 10° N visible
15 Jul 4.5 21:47:10 29° E 21:47:26 29° E 21:51:10 10° NNE visible
15 Jul 5.5 23:24:13 20° W 23:25:13 21° WNW 23:28:33 10° NNW visible
16 Jul 3.6 22:02:54 51° SE 22:03:27 55° E 22:07:40 10° NNE visible
16 Jul 6.2 23:39:57 10° W 23:41:36 12° WNW 23:43:19 10° NW visible
17 Jul 3.5 22:18:36 54° SSW 22:19:33 78° W 22:23:52 10° N visible
18 Jul 5.3 20:57:14 14° ESE 20:58:19 15° E 21:00:49 10° NE visible
18 Jul 4.6 22:34:17 30° WSW 22:35:43 41° WNW 22:39:48 10° N visible
19 Jul 4.6 21:12:52 23° ESE 21:14:14 27° E 21:17:53 10° NNE visible
19 Jul 5.6 22:49:55 16° WSW 22:51:58 23° WNW 22:55:24 10° NNW visible
20 Jul 3.7 21:28:28 30° SSE 21:30:14 51° E 21:34:25 10° NNE visible
20 Jul 6.2 23:06:21 10° W 23:08:20 13° WNW 23:10:19 10° NW visible
21 Jul 3.5 21:44:00 27° S 21:46:18 84° W 21:50:38 10° N visible
